Find OneWeb SL0158

NORAD ID: 48054 Int'l Des: 2021-025 Owner: ONEWEBN Country: UK Constellation: oneweb operational
LEOCIRCULARPOLARONEWEB_TYPE

現在のビュー

3D地球を読み込み中...

About OneWeb SL0158

OneWeb SL0158 (NORAD 48054) is a oneweb constellation satellite launched Mar 25, 2021 by ONEWEBN of UK. It operates in LEO, CIRCULAR, POLAR, ONEWEB_TYPE orbit with a mass of 148.00 kg.

OneWeb SL0158について

説明を読み込み中...

次回通過

Passes for default location (London). Set your location on the main map for personalized predictions.

高度履歴

Loading altitude history...

軌道要素

1 48054U 21025N 26171.17542111 .00000383 00000-0 10136-2 0 9997
2 48054 87.8967 319.6221 0001563 97.6797 262.4509 13.13471324254022
Epoch: Jun 20, 2026 • Age: 8 hours

現在のステータス

高度 1221.7 km
速度 7.25 km/s
衛星直下点 76.21°N, 119.24°W
打ち上げ日 Mar 25, 2021
運用期間 5.2 years
タイプ internet

技術仕様

分類 Payload
質量 148.00 kg
乾燥質量 140.00 kg
総質量 148.00 kg
長さ 1.30 m
直径 1.00 m
スパン 5.00 m
形状 Trapezoid+2 pan
製造者 ONEWUS
バスタイプ ARROW
フェーズステータス In Orbit
所有者/国 ONEWEBN/UK

Most Searched